330  
ASCA44 KEWX 241311  
RWRMX  
 
LATIN AMERICA AND CARIBBEAN REGIONAL WEATHER ROUNDUP  
NATIONAL WEATHER SERVICE AUSTIN/SAN ANTONIO TX  
800 AM CDT MON APR 24 2017  
 
NOTE: "FAIR" INDICATED FEW OR NO CLOUDS BELOW 12,000 FEET WITH NO  
SIGNIFICANT WEATHER AND/OR S TO VISIBILITY
.  
 
BAJA CALIFORNIA  
 
CITY SKY/WX TMP DP RH WIND PRES REMARKS
 
LORETO CLEAR 81 39 22 CALM 29.78  
S.J. DEL CABO CLEAR 68 25 19 NW6 29.84R  
TIJUANA CLOUDY 59 48 67 S6 29.91R  
 
NORTHWESTERN MEXICO  
 
CITY SKY/WX TMP DP RH WIND PRES REMARKS
 
CULIACAN CLEAR 73 68 83 CALM 29.85R  
DURANGO MOCLDY 46 39 76 CALM 30.17  
HERMOSILLO CLEAR 72 48 43 E8 29.85R  
CD. JUAREZ MOCLDY 66 36 32 SW7 29.83S  
LOS MOCHIS CLEAR 66 63 88 E9 29.86  
OBREGON CLEAR 61 41 48 W2 29.81  
 
NORTHEASTERN MEXICO  
 
CITY SKY/WX TMP DP RH WIND PRES REMARKS
 
CHIHUAHUA CLOUDY 63 39 42 SW10 30.00S  
MATAMOROS MOSUNNY 59 54 82 CALM 29.97R  
MONCLOVA PTCLDY 63 45 51 CALM 29.94S  
MONTERREY MOSUNNY 57 46 67 NE5 29.96S  
NUEVO LAREDO SUNNY 57 50 77 SE6 29.95R  
PIEDRAS NEGRAS MOSUNNY 55 41 58 SE7 29.94  
REYNOSA MOSUNNY 61 52 72 S2 29.96S  
SALTILLO PTCLDY 61 48 63 S7 30.09F  
TORREON MOCLDY 68 48 49 CALM 30.01  
CD. VICTORIA PTSUNNY 61 59 94 CALM 29.99S  
 
WESTERN MEXICO  
 
CITY SKY/WX TMP DP RH WIND PRES REMARKS
 
AGUASCALIENTES MOCLDY 59 45 58 NE7 30.21R  
COLIMA PTCLDY 73 55 53 CALM 29.96F  
DEL BAJIO PTCLDY 57 46 67 CALM 30.25R  
GUADALAJARA PTCLDY 61 50 67 CALM 30.14R  
MANZANILLO MOCLDY 68 61 77 N7 29.85  
MAZATLAN CLOUDY 72 68 88 N3 29.86R  
P. VALLARTA MOCLDY 70 70 100 CALM 29.86R  
URUAPAN MOCLDY 55 43 62 CALM 30.16R  
ZACATECAS CLOUDY 50 37 62 CALM 30.23F  
 
CENTRAL MEXICO  
 
CITY SKY/WX TMP DP RH WIND PRES REMARKS
 
CUERNAVACA MOCLDY 64 50 59 CALM 30.10R  
MEXICO CITY MOSUNNY 54 45 71 E6 30.28R  
MORELIA PTCLDY 50 41 71 CALM 30.22R  
POZA RICA CLOUDY 72 72 100 W5 30.03R  
QUERETARO PTCLDY 52 48 87 E2 30.27R  
S. LUIS POTOSI MOCLDY 52 52 100 CALM 30.19R  
TAMPICO PTSUNNY 70 64 83 CALM 29.98R  
TOLUCA PTCLDY 46 41 81 NW3 30.36R  
 
SOUTHERN MEXICO  
 
CITY SKY/WX TMP DP RH WIND PRES REMARKS
 
ACAPULCO PTCLDY 72 66 83 NW3 29.86R  
B. DE HUATULCO SUNNY 75 61 60 CALM 29.93  
OAXACA PTSUNNY 54 52 94 CALM 30.21R  
P. ESCONDIDO SUNNY 73 64 73 E7 29.97R  
VERACRUZ SUNNY 72 70 94 CALM 29.97R  
ZIHUATANEJO PTCLDY 70 64 83 NE3 29.88R  
 
YUCATAN PENINSULA  
 
CITY SKY/WX TMP DP RH WIND PRES REMARKS
 
CAMPECHE MOSUNNY 72 70 94 CALM 29.93R  
CANCUN SUNNY 68 68 100 NW5 29.91S  
CHETUMAL MOSUNNY 72 68 88 CALM 29.94R  
CD. DEL CARMEN MOSUNNY 79 68 69 N8 29.95R  
COZUMEL MOSUNNY 75 68 78 N10 29.90R  
MERIDA MOSUNNY 72 68 88 CALM 29.94R  
MINATITLAN SUNNY 72 68 88 CALM 29.94S  
TAPACHULA PTSUNNY 75 73 94 CALM 29.83R  
TUX. GUTIERREZ PTSUNNY 68 59 73 CALM 30.00R  
VILLAHERMOSA MOSUNNY 70 70 100 CALM 29.99R FOG  
 
CENTRAL AMERICA  
 
CITY SKY/WX TMP DP RH WIND PRES REMARKS
 
BELIZE CITY PTSUNNY 75 73 94 NW6 29.93R  
MANAGUA MOSUNNY 82 73 74 E9 29.83R  
 
CARIBBEAN  
 
CITY SKY/WX TMP DP RH WIND PRES REMARKS
 
ARUBA MOSUNNY 86 77 74 E17 29.83S HX 97  
KINGSTON MOSUNNY 81 75 83 NW3 29.86R  
NASSAU MOSUNNY 82 73 74 SW6 29.79R  
SAN JUAN PTSUNNY 82 79 89 E8 29.97S HX 93  
SANTO DOMINGO CLOUDY 79 77 94 SE7 29.89R  
ST. CROIX RAIN 81 79 94 E16G23 30.00  
ST. KITTS PTSUNNY 82 73 74 E12 30.00S  
ST. THOMAS PTSUNNY 81 75 83 E20G26 29.99  
 

 
 
 
 
CLICK HERE TO GO TO PREVIOUS BULLETINS.

The Nexlab HPC Page Main Text Page